Time,TemperatureF,DewpointF,PressureIn,WindDirection,WindDirectionDegrees,WindSpeedMPH,WindSpeedGustMPH,Humidity,HourlyPrecipIn,Conditions,Clouds,dailyrainin,SolarRadiationWatts/m^2,SoftwareType,DateUTC
2013-05-16 00:05:00,75.2,63.4,29.78,South,180,1.0,2.0,67,0.00,,,0.00,0000,Weather View 32 v70,2013-05-16 05:05:00,
2013-05-16 00:10:00,75.2,63.4,29.78,South,180,1.0,2.0,67,0.00,,,0.00,0000,Weather View 32 v70,2013-05-16 05:10:00,
2013-05-16 00:15:00,74.7,62.9,29.78,SW,225,1.0,2.0,67,0.00,,,0.00,0000,Weather View 32 v70,2013-05-16 05:15:00,
2013-05-16 00:20:00,74.3,63.0,29.80,SSW,202,1.0,2.0,68,0.00,,,0.00,0000,Weather View 32 v70,2013-05-16 05:20:00,
2013-05-16 00:25:00,74.1,62.8,29.80,South,180,1.0,2.0,68,0.00,,,0.00,0000,Weather View 32 v70,2013-05-16 05:25:00,
2013-05-16 00:30:00,74.3,63.4,29.80,SW,225,1.0,2.0,69,0.00,,,0.00,0000,Weather View 32 v70,2013-05-16 05:30:00,
2013-05-16 00:39:00,74.1,63.3,29.80,SSW,202,1.0,2.0,69,0.00,,,0.00,0000,Weather View 32 v70,2013-05-16 05:39:00,
2013-05-16 00:44:00,73.9,63.1,29.80,SSW,202,1.0,2.0,69,0.00,,,0.00,0000,Weather View 32 v70,2013-05-16 05:44:00,
2013-05-16 00:49:00,73.9,63.5,29.80,South,180,0.0,2.0,70,0.00,,,0.00,0000,Weather View 32 v70,2013-05-16 05:49:00,
2013-05-16 00:54:00,73.8,63.3,29.80,South,180,1.0,2.0,70,0.00,,,0.00,0000,Weather View 32 v70,2013-05-16 05:54:00,
2013-05-16 00:59:00,73.8,63.3,29.80,SSW,202,1.0,2.0,70,0.00,,,0.00,0000,Weather View 32 v70,2013-05-16 05:59:00,
2013-05-16 01:04:00,73.9,63.5,29.80,South,180,2.0,2.0,70,0.00,,,0.00,0000,Weather View 32 v70,2013-05-16 06:04:00,
2013-05-16 01:10:00,73.9,63.9,29.80,SSE,158,2.0,2.0,71,0.00,,,0.00,0000,Weather View 32 v70,2013-05-16 06:10:00,
2013-05-16 01:15:00,73.9,63.9,29.80,SSW,202,1.0,2.0,71,0.00,,,0.00,0000,Weather View 32 v70,2013-05-16 06:15:00,
2013-05-16 01:20:00,73.8,63.7,29.78,NNW,338,0.0,2.0,71,0.00,,,0.00,0000,Weather View 32 v70,2013-05-16 06:20:00,
2013-05-16 01:25:00,73.6,63.6,29.78,SSE,158,0.0,2.0,71,0.00,,,0.00,0000,Weather View 32 v70,2013-05-16 06:25:00,
2013-05-16 01:30:00,73.6,63.6,29.78,SSE,158,1.0,2.0,71,0.00,,,0.00,0000,Weather View 32 v70,2013-05-16 06:30:00,
2013-05-16 01:39:00,73.8,64.1,29.77,SSW,202,2.0,2.0,72,0.00,,,0.00,0000,Weather View 32 v70,2013-05-16 06:39:00,
2013-05-16 01:44:00,73.6,64.0,29.77,South,180,1.0,2.0,72,0.00,,,0.00,0000,Weather View 32 v70,2013-05-16 06:44:00,
2013-05-16 01:49:00,73.6,64.0,29.77,South,180,1.0,2.0,72,0.00,,,0.00,0000,Weather View 32 v70,2013-05-16 06:49:00,
2013-05-16 01:54:00,73.6,64.0,29.77,South,180,1.0,2.0,72,0.00,,,0.00,0000,Weather View 32 v70,2013-05-16 06:54:00,
2013-05-16 01:59:00,73.6,64.0,29.77,South,180,1.0,2.0,72,0.00,,,0.00,0000,Weather View 32 v70,2013-05-16 06:59:00,
2013-05-16 02:04:00,73.2,64.0,29.77,SW,225,1.0,2.0,73,0.00,,,0.00,0000,Weather View 32 v70,2013-05-16 07:04:00,
2013-05-16 02:10:00,73.0,63.8,29.77,South,180,2.0,2.0,73,0.00,,,0.00,0000,Weather View 32 v70,2013-05-16 07:10:00,
2013-05-16 02:15:00,73.0,63.8,29.77,SSW,202,2.0,2.0,73,0.00,,,0.00,0000,Weather View 32 v70,2013-05-16 07:15:00,
2013-05-16 02:20:00,72.9,64.1,29.76,SSE,158,2.0,2.0,74,0.00,,,0.00,0000,Weather View 32 v70,2013-05-16 07:20:00,
2013-05-16 02:25:00,72.9,64.1,29.76,SSE,158,1.0,2.0,74,0.00,,,0.00,0000,Weather View 32 v70,2013-05-16 07:25:00,
2013-05-16 02:30:00,72.5,63.7,29.76,SSE,158,2.0,2.0,74,0.00,,,0.00,0000,Weather View 32 v70,2013-05-16 07:30:00,
2013-05-16 02:39:00,72.0,63.2,29.76,WSW,248,1.0,2.0,74,0.00,,,0.00,0000,Weather View 32 v70,2013-05-16 07:39:00,
2013-05-16 02:45:00,72.0,63.6,29.76,NW,315,0.0,2.0,75,0.00,,,0.00,0000,Weather View 32 v70,2013-05-16 07:45:00,
2013-05-16 02:54:00,71.4,63.4,29.76,SSE,158,0.0,2.0,76,0.00,,,0.00,0000,Weather View 32 v70,2013-05-16 07:54:00,
2013-05-16 02:59:00,71.2,63.3,29.78,South,180,0.0,2.0,76,0.00,,,0.00,0000,Weather View 32 v70,2013-05-16 07:59:00,
2013-05-16 03:04:00,71.4,63.4,29.78,SSW,202,0.0,2.0,76,0.00,,,0.00,0000,Weather View 32 v70,2013-05-16 08:04:00,
2013-05-16 03:10:00,71.4,63.4,29.78,SSW,202,0.0,2.0,76,0.00,,,0.00,0000,Weather View 32 v70,2013-05-16 08:10:00,
2013-05-16 03:15:00,70.7,63.1,29.78,SW,225,0.0,2.0,77,0.00,,,0.00,0000,Weather View 32 v70,2013-05-16 08:15:00,
2013-05-16 03:20:00,70.7,63.1,29.79,SSW,202,0.0,2.0,77,0.00,,,0.00,0000,Weather View 32 v70,2013-05-16 08:20:00,
2013-05-16 03:29:00,70.7,63.5,29.79,SSW,202,1.0,2.0,78,0.00,,,0.00,0000,Weather View 32 v70,2013-05-16 08:29:00,
2013-05-16 03:30:00,70.7,63.5,29.79,SSW,202,1.0,2.0,78,0.00,,,0.00,0000,Weather View 32 v70,2013-05-16 08:30:00,
2013-05-16 03:31:00,70.7,63.5,29.79,SSW,202,1.0,2.0,78,0.00,,,0.00,0000,Weather View 32 v70,2013-05-16 08:31:00,